Change the Weather History Date:

Thursday, September 13, 2012

  Actual Average Record
Temperature  
Mean Temperature 80 °F 75 °F  
Max Temperature 92 °F 86 °F 101 °F (1893)
Min Temperature 67 °F 64 °F 42 °F (1902)
Degree Days  
Heating Degree Days 0 0  
Month to date heating degree days 0 0  
Since 1 July heating degree days 0 0  
Cooling Degree Days 15 10  
Month to date cooling degree days 229 159  
Year to date cooling degree days 2645 1854  
Growing Degree Days 28 (Base 50)    
Moisture  
Dew Point 64 °F    
Average Humidity 63    
Maximum Humidity 84    
Minimum Humidity 41    
Precipitation  
Precipitation 0.00 in 0.14 in 1.95 in (2008)
Month to date precipitation 0.81 1.66  
Year to date precipitation 27.27 31.02  
Sea Level Pressure  
Sea Level Pressure 30.09 in    
Wind  
Wind Speed 6 mph (ENE)    
Max Wind Speed 14 mph    
Max Gust Speed 17 mph    
Visibility 10 miles    
Events      
T = Trace of Precipitation, MM = Missing Value Source: NWS Daily Summary

Daily Weather History Graph

Daily Weather History Graph

Search for Another Location

Airport or City:

Trip Planner

Search our weather history database for the weather conditions in past years. The results will help you decide how hot, cold, wet, or windy it might be!

Date:

Astronomy

Sep. 13, 2012 Rise Set
Actual Time 6:59 AM CDT 7:26 PM CDT
Civil Twilight 6:33 AM CDT 7:52 PM CDT
Nautical Twilight 6:03 AM CDT 8:21 PM CDT
Astronomical Twilight 5:33 AM CDT 8:52 PM CDT
Moon 4:23 AM CDT (9/13) 5:47 PM CDT (9/13)
Length of Visible Light 13h 18m
Length of Day
12h 27m
Waning Crescent, 7% of the Moon is Illuminated
Sep 13
Waning Crescent
Sep 15
New
Sep 22
First Quarter
Sep 29
Full
Oct 8
Last Quarter

Hourly Weather History & Observations

Time (CDT) Temp. Heat Index Dew Point Humidity Pressure Visibility Wind Dir Wind Speed Gust Speed Precip Events Conditions
12:53 AM 73.0 °F - 61.0 °F 66% 30.08 in 10.0 mi NNE 3.5 mph - N/A   Clear
1:53 AM 70.0 °F - 62.1 °F 76% 30.08 in 10.0 mi ENE 4.6 mph - N/A   Clear
2:53 AM 70.0 °F - 62.1 °F 76% 30.07 in 10.0 mi East 4.6 mph - N/A   Partly Cloudy
3:53 AM 69.1 °F - 62.1 °F 78% 30.07 in 10.0 mi East 4.6 mph - N/A   Clear
4:53 AM 68.0 °F - 62.1 °F 81% 30.07 in 9.0 mi ENE 5.8 mph - N/A   Clear
5:53 AM 68.0 °F - 62.1 °F 81% 30.09 in 9.0 mi East 3.5 mph - N/A   Clear
6:53 AM 66.9 °F - 61.0 °F 81% 30.10 in 9.0 mi East 3.5 mph - N/A   Scattered Clouds
7:53 AM 69.1 °F - 61.0 °F 75% 30.11 in 10.0 mi East 5.8 mph - N/A   Clear
8:53 AM 73.9 °F - 60.1 °F 62% 30.12 in 10.0 mi ENE 11.5 mph - N/A   Clear
9:53 AM 78.1 °F - 61.0 °F 56% 30.14 in 10.0 mi East 6.9 mph - N/A   Mostly Cloudy
10:53 AM 82.0 °F 83.4 °F 64.0 °F 54% 30.13 in 10.0 mi Calm Calm - N/A   Clear
11:53 AM 84.9 °F 87.1 °F 66.0 °F 53% 30.12 in 10.0 mi ESE 6.9 mph - N/A   Clear
12:53 PM 89.1 °F 92.1 °F 66.9 °F 48% 30.10 in 10.0 mi ENE 10.4 mph - N/A   Clear
1:53 PM 91.0 °F 92.6 °F 64.0 °F 41% 30.06 in 10.0 mi East 9.2 mph - N/A   Mostly Cloudy
2:53 PM 90.0 °F 90.3 °F 62.1 °F 39% 30.06 in 10.0 mi ESE 9.2 mph - N/A   Partly Cloudy
3:53 PM 86.0 °F 88.2 °F 66.0 °F 51% 30.05 in 10.0 mi SSW 9.2 mph - N/A   Scattered Clouds
4:53 PM 86.0 °F 87.6 °F 64.9 °F 49% 30.04 in 10.0 mi SW 5.8 mph - N/A   Partly Cloudy
5:53 PM 84.0 °F 87.0 °F 68.0 °F 58% 30.06 in 10.0 mi WSW 9.2 mph - N/A   Partly Cloudy
6:53 PM 81.0 °F 82.7 °F 64.9 °F 58% 30.07 in 10.0 mi West 6.9 mph - N/A   Clear
7:53 PM 79.0 °F - 66.0 °F 64% 30.09 in 10.0 mi West 3.5 mph - N/A   Clear
8:53 PM 75.9 °F - 64.9 °F 69% 30.11 in 10.0 mi West 8.1 mph - N/A   Partly Cloudy
9:53 PM 75.9 °F - 66.0 °F 71% 30.13 in 10.0 mi NNE 5.8 mph - N/A   Clear
10:53 PM 75.0 °F - 66.9 °F 76% 30.14 in 10.0 mi NE 8.1 mph - N/A   Scattered Clouds
11:53 PM 73.9 °F - 68.0 °F 82% 30.14 in 10.0 mi Calm Calm - N/A   Clear